Time,TemperatureF,DewpointF,PressureIn,WindDirection,WindDirectionDegrees,WindSpeedMPH,WindSpeedGustMPH,Humidity,HourlyPrecipIn,Conditions,Clouds,dailyrainin,SoftwareType,DateUTC
2013-04-28 00:01:00,54.3,48.9,29.25,ESE,112,0.0,3.4,82,0.00,,,0.00,WUHU21623XXSP,2013-04-28 04:01:00,
2013-04-28 00:02:00,54.3,48.9,29.25,ESE,112,0.0,0.0,82,0.00,,,0.00,WUHU21623XXSP,2013-04-28 04:02:00,
2013-04-28 00:07:00,54.3,48.9,29.25,ESE,112,0.0,0.0,82,0.00,,,0.00,WUHU21623XXSP,2013-04-28 04:07:00,
2013-04-28 00:12:00,54.1,48.8,29.25,ESE,112,2.2,2.2,82,0.00,,,0.00,WUHU21623XXSP,2013-04-28 04:12:00,
2013-04-28 00:17:00,54.1,49.1,29.25,ESE,112,3.8,3.8,83,0.00,,,0.00,WUHU21623XXSP,2013-04-28 04:17:00,
2013-04-28 00:22:00,54.1,49.1,29.25,SE,135,3.8,3.8,83,0.00,,,0.00,WUHU21623XXSP,2013-04-28 04:22:00,
2013-04-28 00:27:00,54.1,49.1,29.25,SE,135,4.5,4.5,83,0.00,,,0.00,WUHU21623XXSP,2013-04-28 04:27:00,
2013-04-28 00:32:00,54.1,49.1,29.24,SE,135,0.0,4.5,83,0.00,,,0.00,WUHU21623XXSP,2013-04-28 04:32:00,
2013-04-28 00:37:00,54.1,49.1,29.24,SE,135,4.0,4.0,83,0.00,,,0.00,WUHU21623XXSP,2013-04-28 04:37:00,
2013-04-28 00:42:00,54.1,49.1,29.24,SE,135,0.0,4.0,83,0.00,,,0.00,WUHU21623XXSP,2013-04-28 04:42:00,
2013-04-28 00:47:00,54.0,48.9,29.24,ESE,112,2.7,4.0,83,0.00,,,0.00,WUHU21623XXSP,2013-04-28 04:47:00,
2013-04-28 00:52:00,54.0,48.9,29.24,SE,135,0.0,3.6,83,0.00,,,0.00,WUHU21623XXSP,2013-04-28 04:52:00,
2013-04-28 00:57:00,54.0,48.9,29.23,ESE,112,0.0,3.6,83,0.00,,,0.00,WUHU21623XXSP,2013-04-28 04:57:00,
2013-04-28 01:02:00,54.0,48.9,29.23,SSW,202,0.0,0.7,83,0.00,,,0.00,WUHU21623XXSP,2013-04-28 05:02:00,
2013-04-28 01:07:00,54.0,48.9,29.23,SE,135,0.0,0.0,83,0.00,,,0.00,WUHU21623XXSP,2013-04-28 05:07:00,
2013-04-28 01:12:00,54.0,48.9,29.23,SE,135,0.0,2.9,83,0.00,,,0.00,WUHU21623XXSP,2013-04-28 05:12:00,
2013-04-28 01:17:00,54.0,48.9,29.23,SE,135,0.0,2.9,83,0.00,,,0.00,WUHU21623XXSP,2013-04-28 05:17:00,
2013-04-28 01:22:00,54.0,48.9,29.23,SE,135,0.0,0.0,83,0.00,,,0.00,WUHU21623XXSP,2013-04-28 05:22:00,
2013-04-28 01:27:00,54.0,48.9,29.22,SE,135,0.0,0.0,83,0.00,,,0.00,WUHU21623XXSP,2013-04-28 05:27:00,
2013-04-28 01:32:00,54.0,48.9,29.22,East,90,0.7,0.7,83,0.00,,,0.00,WUHU21623XXSP,2013-04-28 05:32:00,
2013-04-28 01:37:00,54.0,48.9,29.22,SE,135,0.0,0.7,83,0.00,,,0.00,WUHU21623XXSP,2013-04-28 05:37:00,
2013-04-28 01:43:00,53.8,49.0,29.22,SE,135,0.0,0.0,84,0.00,,,0.00,WUHU21623XXSP,2013-04-28 05:43:00,
2013-04-28 01:48:00,53.8,49.0,29.22,ESE,112,0.0,0.0,84,0.00,,,0.00,WUHU21623XXSP,2013-04-28 05:48:00,
2013-04-28 01:53:00,53.8,49.0,29.21,SE,135,0.0,2.2,84,0.00,,,0.00,WUHU21623XXSP,2013-04-28 05:53:00,
2013-04-28 01:58:00,53.8,49.0,29.21,ESE,112,0.0,2.2,84,0.00,,,0.00,WUHU21623XXSP,2013-04-28 05:58:00,
2013-04-28 02:03:00,53.8,49.0,29.21,ESE,112,0.0,0.0,84,0.00,,,0.00,WUHU21623XXSP,2013-04-28 06:03:00,
2013-04-28 02:08:00,53.8,49.0,29.21,SE,135,0.9,0.9,84,0.00,,,0.00,WUHU21623XXSP,2013-04-28 06:08:00,
2013-04-28 02:13:00,53.8,49.0,29.21,SE,135,0.0,0.9,84,0.00,,,0.00,WUHU21623XXSP,2013-04-28 06:13:00,
2013-04-28 02:18:00,53.8,49.0,29.20,East,90,0.0,0.0,84,0.00,,,0.00,WUHU21623XXSP,2013-04-28 06:18:00,
2013-04-28 02:23:00,53.8,49.0,29.20,East,90,0.0,0.0,84,0.00,,,0.00,WUHU21623XXSP,2013-04-28 06:23:00,
2013-04-28 02:28:00,53.8,49.0,29.19,ENE,67,0.0,0.0,84,0.00,,,0.00,WUHU21623XXSP,2013-04-28 06:28:00,
2013-04-28 02:33:00,53.8,49.0,29.19,East,90,0.0,0.0,84,0.00,,,0.00,WUHU21623XXSP,2013-04-28 06:33:00,
2013-04-28 02:38:00,53.8,49.0,29.19,East,90,0.0,0.0,84,0.00,,,0.00,WUHU21623XXSP,2013-04-28 06:38:00,
2013-04-28 02:43:00,53.8,49.0,29.19,East,90,0.0,0.0,84,0.00,,,0.00,WUHU21623XXSP,2013-04-28 06:43:00,
2013-04-28 02:48:00,53.8,49.0,29.18,East,90,0.0,0.0,84,0.00,,,0.00,WUHU21623XXSP,2013-04-28 06:48:00,
2013-04-28 02:53:00,53.8,49.0,29.18,ESE,112,0.0,0.0,84,0.00,,,0.00,WUHU21623XXSP,2013-04-28 06:53:00,
2013-04-28 02:58:00,53.6,48.9,29.17,ESE,112,0.0,0.0,84,0.00,,,0.00,WUHU21623XXSP,2013-04-28 06:58:00,
2013-04-28 03:03:00,53.6,48.9,29.18,ENE,67,0.0,0.0,84,0.00,,,0.00,WUHU21623XXSP,2013-04-28 07:03:00,
2013-04-28 03:08:00,53.6,48.9,29.17,ENE,67,0.0,0.0,84,0.00,,,0.00,WUHU21623XXSP,2013-04-28 07:08:00,
2013-04-28 03:13:00,53.4,48.7,29.16,NE,45,0.0,0.0,84,0.00,,,0.00,WUHU21623XXSP,2013-04-28 07:13:00,
2013-04-28 03:18:00,53.4,48.7,29.16,NE,45,0.0,0.0,84,0.00,,,0.00,WUHU21623XXSP,2013-04-28 07:18:00,
2013-04-28 03:23:00,53.4,48.7,29.16,ENE,67,0.0,0.0,84,0.00,,,0.00,WUHU21623XXSP,2013-04-28 07:23:00,
2013-04-28 03:28:00,53.4,48.7,29.16,ESE,112,0.0,0.0,84,0.00,,,0.00,WUHU21623XXSP,2013-04-28 07:28:00,
2013-04-28 03:33:00,53.4,48.7,29.16,NNE,22,0.0,0.0,84,0.00,,,0.00,WUHU21623XXSP,2013-04-28 07:33:00,
2013-04-28 03:38:00,53.4,48.7,29.16,ESE,112,0.0,0.0,84,0.00,,,0.00,WUHU21623XXSP,2013-04-28 07:38:00,
2013-04-28 03:43:00,53.4,48.7,29.16,East,90,0.0,0.0,84,0.00,,,0.00,WUHU21623XXSP,2013-04-28 07:43:00,
2013-04-28 03:48:00,53.4,48.7,29.16,NE,45,0.0,0.0,84,0.00,,,0.00,WUHU21623XXSP,2013-04-28 07:48:00,
2013-04-28 03:53:00,53.4,48.7,29.15,NE,45,0.0,0.0,84,0.00,,,0.00,WUHU21623XXSP,2013-04-28 07:53:00,
2013-04-28 03:59:00,53.4,48.7,29.15,ENE,67,0.0,0.0,84,0.00,,,0.00,WUHU21623XXSP,2013-04-28 07:59:00,
2013-04-28 04:04:00,53.4,48.7,29.15,NE,45,0.0,0.0,84,0.00,,,0.00,WUHU21623XXSP,2013-04-28 08:04:00,
2013-04-28 04:09:00,53.4,49.0,29.16,NE,45,0.0,0.0,85,0.00,,,0.00,WUHU21623XXSP,2013-04-28 08:09:00,
2013-04-28 04:14:00,53.4,49.0,29.15,NE,45,0.0,0.0,85,0.00,,,0.00,WUHU21623XXSP,2013-04-28 08:14:00,
2013-04-28 04:19:00,53.4,49.0,29.15,NE,45,0.0,0.0,85,0.00,,,0.00,WUHU21623XXSP,2013-04-28 08:19:00,
2013-04-28 04:24:00,53.2,48.8,29.16,SE,135,0.0,0.0,85,0.00,,,0.00,WUHU21623XXSP,2013-04-28 08:24:00,
2013-04-28 04:29:00,53.2,48.8,29.16,NE,45,0.0,0.0,85,0.00,,,0.00,WUHU21623XXSP,2013-04-28 08:29:00,
2013-04-28 04:34:00,53.2,48.8,29.15,NNE,22,0.0,0.0,85,0.00,,,0.00,WUHU21623XXSP,2013-04-28 08:34:00,
2013-04-28 04:39:00,53.2,48.8,29.15,ESE,112,0.0,0.0,85,0.00,,,0.00,WUHU21623XXSP,2013-04-28 08:39:00,
2013-04-28 04:44:00,53.2,48.8,29.15,ENE,67,0.0,2.2,85,0.00,,,0.00,WUHU21623XXSP,2013-04-28 08:44:00,
2013-04-28 04:49:00,53.1,49.0,29.15,ENE,67,2.2,2.2,86,0.00,,,0.00,WUHU21623XXSP,2013-04-28 08:49:00,
2013-04-28 04:54:00,53.1,49.0,29.15,ENE,67,0.0,2.2,86,0.00,,,0.00,WUHU21623XXSP,2013-04-28 08:54:00,
2013-04-28 04:59:00,53.1,49.0,29.14,ENE,67,0.0,0.0,86,0.00,,,0.00,WUHU21623XXSP,2013-04-28 08:59:00,
2013-04-28 05:04:00,52.9,48.8,29.14,ENE,67,0.0,0.0,86,0.00,,,0.00,WUHU21623XXSP,2013-04-28 09:04:00,
2013-04-28 05:09:00,52.9,48.8,29.14,SE,135,0.0,1.8,86,0.00,,,0.00,WUHU21623XXSP,2013-04-28 09:09:00,
2013-04-28 05:14:00,52.9,48.8,29.13,NE,45,0.0,2.5,86,0.00,,,0.00,WUHU21623XXSP,2013-04-28 09:14:00,
2013-04-28 05:19:00,52.9,49.1,29.13,NE,45,0.0,2.5,87,0.00,,,0.00,WUHU21623XXSP,2013-04-28 09:19:00,
2013-04-28 05:24:00,52.9,49.1,29.13,ENE,67,5.4,5.4,87,0.00,,,0.00,WUHU21623XXSP,2013-04-28 09:24:00,
2013-04-28 05:29:00,52.9,49.1,29.13,NNE,22,0.0,5.4,87,0.00,,,0.00,WUHU21623XXSP,2013-04-28 09:29:00,
2013-04-28 05:34:00,52.9,49.1,29.13,ESE,112,0.0,2.5,87,0.00,,,0.00,WUHU21623XXSP,2013-04-28 09:34:00,
2013-04-28 05:39:00,52.9,49.1,29.13,East,90,0.0,2.5,87,0.00,,,0.00,WUHU21623XXSP,2013-04-28 09:39:00,
2013-04-28 05:44:00,52.9,49.1,29.13,SE,135,0.0,0.0,87,0.00,,,0.00,WUHU21623XXSP,2013-04-28 09:44:00,
2013-04-28 05:49:00,52.9,49.1,29.13,ESE,112,0.0,0.9,87,0.00,,,0.00,WUHU21623XXSP,2013-04-28 09:49:00,
2013-04-28 05:54:00,52.9,49.1,29.13,ESE,112,0.0,0.9,87,0.00,,,0.00,WUHU21623XXSP,2013-04-28 09:54:00,
2013-04-28 05:59:00,52.9,49.1,29.13,NE,45,0.0,0.0,87,0.00,,,0.00,WUHU21623XXSP,2013-04-28 09:59:00,
2013-04-28 06:04:00,52.9,49.1,29.13,SE,135,0.0,0.0,87,0.00,,,0.00,WUHU21623XXSP,2013-04-28 10:04:00,
2013-04-28 06:09:00,52.9,49.1,29.13,ESE,112,0.0,0.0,87,0.00,,,0.00,WUHU21623XXSP,2013-04-28 10:09:00,
2013-04-28 06:14:00,52.9,49.1,29.13,East,90,0.0,2.9,87,0.00,,,0.00,WUHU21623XXSP,2013-04-28 10:14:00,
2013-04-28 06:19:00,52.9,49.4,29.12,SE,135,0.0,3.4,88,0.00,,,0.00,WUHU21623XXSP,2013-04-28 10:19:00,
2013-04-28 06:24:00,52.9,49.4,29.12,SE,135,0.0,3.4,88,0.00,,,0.00,WUHU21623XXSP,2013-04-28 10:24:00,
2013-04-28 06:29:00,52.9,49.4,29.12,SE,135,1.1,1.1,88,0.00,,,0.00,WUHU21623XXSP,2013-04-28 10:29:00,
2013-04-28 06:35:00,52.9,49.4,29.12,SE,135,0.0,1.1,88,0.00,,,0.00,WUHU21623XXSP,2013-04-28 10:35:00,
2013-04-28 06:40:00,52.9,49.4,29.12,ESE,112,0.0,0.0,88,0.00,,,0.00,WUHU21623XXSP,2013-04-28 10:40:00,
2013-04-28 06:45:00,52.9,49.4,29.12,SE,135,0.0,0.0,88,0.00,,,0.00,WUHU21623XXSP,2013-04-28 10:45:00,
2013-04-28 06:50:00,52.9,49.4,29.12,NNE,22,0.0,0.0,88,0.00,,,0.00,WUHU21623XXSP,2013-04-28 10:50:00,
2013-04-28 06:55:00,52.9,49.4,29.12,ENE,67,0.0,0.0,88,0.00,,,0.00,WUHU21623XXSP,2013-04-28 10:55:00,
2013-04-28 07:00:00,52.9,49.4,29.12,East,90,0.0,4.0,88,0.00,,,0.00,WUHU21623XXSP,2013-04-28 11:00:00,
2013-04-28 07:05:00,52.9,49.4,29.13,East,90,0.0,4.0,88,0.00,,,0.00,WUHU21623XXSP,2013-04-28 11:05:00,
2013-04-28 07:10:00,52.9,49.4,29.12,NNE,22,0.0,0.0,88,0.00,,,0.00,WUHU21623XXSP,2013-04-28 11:10:00,
2013-04-28 07:15:00,52.9,49.4,29.13,SE,135,0.0,0.0,88,0.00,,,0.00,WUHU21623XXSP,2013-04-28 11:15:00,
2013-04-28 07:20:00,52.9,49.7,29.13,NE,45,0.0,0.0,89,0.00,,,0.00,WUHU21623XXSP,2013-04-28 11:20:00,
2013-04-28 07:25:00,52.9,49.7,29.13,SE,135,0.0,0.0,89,0.00,,,0.00,WUHU21623XXSP,2013-04-28 11:25:00,
2013-04-28 07:30:00,52.9,49.7,29.13,NE,45,0.0,0.0,89,0.00,,,0.00,WUHU21623XXSP,2013-04-28 11:30:00,
2013-04-28 07:35:00,52.9,49.7,29.13,ESE,112,0.0,0.0,89,0.00,,,0.00,WUHU21623XXSP,2013-04-28 11:35:00,
2013-04-28 07:40:00,52.9,49.7,29.12,ENE,67,0.0,0.0,89,0.00,,,0.00,WUHU21623XXSP,2013-04-28 11:40:00,
2013-04-28 07:45:00,52.9,49.7,29.12,East,90,0.0,0.0,89,0.00,,,0.00,WUHU21623XXSP,2013-04-28 11:45:00,
2013-04-28 07:50:00,52.9,49.7,29.13,East,90,0.0,0.0,89,0.00,,,0.00,WUHU21623XXSP,2013-04-28 11:50:00,
2013-04-28 07:55:00,53.2,50.1,29.12,SE,135,0.0,0.0,89,0.00,,,0.00,WUHU21623XXSP,2013-04-28 11:55:00,
2013-04-28 08:00:00,53.1,49.9,29.12,East,90,0.0,0.0,89,0.00,,,0.00,WUHU21623XXSP,2013-04-28 12:00:00,
2013-04-28 08:05:00,53.2,50.1,29.13,ESE,112,0.0,0.0,89,0.00,,,0.00,WUHU21623XXSP,2013-04-28 12:05:00,
2013-04-28 08:10:00,53.2,50.1,29.12,SE,135,0.0,0.0,89,0.00,,,0.00,WUHU21623XXSP,2013-04-28 12:10:00,
2013-04-28 08:15:00,53.2,50.1,29.12,ESE,112,0.0,0.0,89,0.00,,,0.00,WUHU21623XXSP,2013-04-28 12:15:00,
2013-04-28 08:20:00,53.2,50.1,29.12,East,90,0.0,1.6,89,0.00,,,0.00,WUHU21623XXSP,2013-04-28 12:20:00,
2013-04-28 08:25:00,53.2,50.1,29.12,East,90,0.0,1.6,89,0.00,,,0.00,WUHU21623XXSP,2013-04-28 12:25:00,
2013-04-28 08:30:00,53.4,50.2,29.12,NE,45,0.0,1.6,89,0.00,,,0.00,WUHU21623XXSP,2013-04-28 12:30:00,
2013-04-28 08:35:00,53.4,50.2,29.12,East,90,0.0,0.0,89,0.00,,,0.00,WUHU21623XXSP,2013-04-28 12:35:00,
2013-04-28 08:40:00,53.4,50.2,29.12,ESE,112,0.0,1.1,89,0.00,,,0.00,WUHU21623XXSP,2013-04-28 12:40:00,
2013-04-28 08:45:00,53.4,50.2,29.12,ESE,112,0.0,2.7,89,0.00,,,0.00,WUHU21623XXSP,2013-04-28 12:45:00,
2013-04-28 08:50:00,53.4,50.2,29.12,ESE,112,0.0,2.7,89,0.00,,,0.00,WUHU21623XXSP,2013-04-28 12:50:00,
2013-04-28 08:56:00,53.4,50.2,29.12,ESE,112,0.0,2.2,89,0.00,,,0.00,WUHU21623XXSP,2013-04-28 12:56:00,
2013-04-28 09:01:00,53.8,50.6,29.12,ESE,112,3.1,3.1,89,0.00,,,0.00,WUHU21623XXSP,2013-04-28 13:01:00,
2013-04-28 09:06:00,53.8,50.2,29.12,East,90,3.6,3.6,89,0.00,,,0.00,WUHU21623XXSP,2013-04-28 13:06:00,
2013-04-28 09:11:00,53.8,50.6,29.11,ESE,112,2.2,3.6,89,0.00,,,0.00,WUHU21623XXSP,2013-04-28 13:11:00,
2013-04-28 09:16:00,53.8,50.9,29.11,ESE,112,0.0,2.2,90,0.00,,,0.00,WUHU21623XXSP,2013-04-28 13:16:00,
2013-04-28 09:21:00,54.1,51.3,29.11,SE,135,0.0,0.9,90,0.00,,,0.00,WUHU21623XXSP,2013-04-28 13:21:00,
2013-04-28 09:26:00,54.3,51.4,29.11,SE,135,1.1,1.1,90,0.00,,,0.00,WUHU21623XXSP,2013-04-28 13:26:00,
2013-04-28 09:31:00,54.3,51.4,29.11,SE,135,0.0,2.9,90,0.00,,,0.00,WUHU21623XXSP,2013-04-28 13:31:00,
2013-04-28 09:36:00,54.3,51.4,29.11,ESE,112,0.0,2.9,90,0.00,,,0.00,WUHU21623XXSP,2013-04-28 13:36:00,
2013-04-28 09:41:00,54.3,51.4,29.11,East,90,0.0,2.2,90,0.00,,,0.00,WUHU21623XXSP,2013-04-28 13:41:00,
2013-04-28 09:46:00,54.3,51.4,29.11,SE,135,0.0,3.1,90,0.00,,,0.00,WUHU21623XXSP,2013-04-28 13:46:00,
2013-04-28 09:51:00,54.3,51.4,29.11,East,90,0.0,3.1,90,0.00,,,0.00,WUHU21623XXSP,2013-04-28 13:51:00,
2013-04-28 09:56:00,54.5,51.6,29.11,ENE,67,0.0,0.0,90,0.00,,,0.00,WUHU21623XXSP,2013-04-28 13:56:00,
2013-04-28 10:01:00,54.5,51.6,29.11,SSE,157,0.0,0.0,90,0.00,,,0.00,WUHU21623XXSP,2013-04-28 14:01:00,
2013-04-28 10:06:00,54.5,51.6,29.11,ENE,67,0.0,0.0,90,0.00,,,0.00,WUHU21623XXSP,2013-04-28 14:06:00,
2013-04-28 10:11:00,54.7,51.8,29.11,SSE,157,0.0,0.0,90,0.00,,,0.00,WUHU21623XXSP,2013-04-28 14:11:00,
2013-04-28 10:16:00,54.7,51.8,29.11,ESE,112,0.0,0.0,90,0.00,,,0.00,WUHU21623XXSP,2013-04-28 14:16:00,
2013-04-28 10:21:00,55.0,52.2,29.11,SE,135,0.0,0.0,90,0.00,,,0.00,WUHU21623XXSP,2013-04-28 14:21:00,
2013-04-28 10:26:00,55.2,52.3,29.10,East,90,0.0,0.0,90,0.00,,,0.00,WUHU21623XXSP,2013-04-28 14:26:00,
2013-04-28 10:31:00,55.2,52.3,29.10,South,180,0.0,0.0,90,0.00,,,0.00,WUHU21623XXSP,2013-04-28 14:31:00,
2013-04-28 10:36:00,55.6,52.5,29.10,SE,135,0.0,0.0,90,0.00,,,0.00,WUHU21623XXSP,2013-04-28 14:36:00,
2013-04-28 10:41:00,55.6,52.7,29.10,SE,135,0.0,0.0,90,0.00,,,0.00,WUHU21623XXSP,2013-04-28 14:41:00,
2013-04-28 10:46:00,55.6,52.7,29.10,SSW,202,0.0,0.0,90,0.00,,,0.00,WUHU21623XXSP,2013-04-28 14:46:00,
2013-04-28 10:51:00,55.8,52.9,29.10,SW,225,0.0,0.0,90,0.00,,,0.00,WUHU21623XXSP,2013-04-28 14:51:00,
2013-04-28 10:56:00,55.8,52.9,29.10,SE,135,0.0,0.0,90,0.00,,,0.00,WUHU21623XXSP,2013-04-28 14:56:00,
2013-04-28 11:01:00,55.8,53.2,29.10,SSE,157,0.0,0.7,91,0.00,,,0.00,WUHU21623XXSP,2013-04-28 15:01:00,
2013-04-28 11:06:00,55.9,53.3,29.10,SE,135,0.0,0.7,91,0.00,,,0.00,WUHU21623XXSP,2013-04-28 15:06:00,
2013-04-28 11:11:00,56.1,53.5,29.10,South,180,0.0,0.0,91,0.00,,,0.00,WUHU21623XXSP,2013-04-28 15:11:00,
2013-04-28 11:16:00,56.5,53.9,29.10,SE,135,0.0,0.0,91,0.00,,,0.00,WUHU21623XXSP,2013-04-28 15:16:00,
2013-04-28 11:21:00,56.7,53.9,29.10,SSW,202,0.0,0.0,91,0.00,,,0.00,WUHU21623XXSP,2013-04-28 15:21:00,
2013-04-28 11:27:00,56.8,54.2,29.10,SE,135,1.6,1.6,91,0.00,,,0.00,WUHU21623XXSP,2013-04-28 15:27:00,
2013-04-28 11:32:00,57.0,54.4,29.10,SSW,202,2.5,4.0,91,0.00,,,0.00,WUHU21623XXSP,2013-04-28 15:32:00,
2013-04-28 11:37:00,57.0,54.1,29.10,SSE,157,0.0,4.0,90,0.00,,,0.00,WUHU21623XXSP,2013-04-28 15:37:00,
2013-04-28 11:42:00,57.4,54.5,29.10,SSW,202,2.5,5.1,90,0.00,,,0.00,WUHU21623XXSP,2013-04-28 15:42:00,
2013-04-28 11:47:00,57.4,54.5,29.10,SSE,157,0.0,5.1,90,0.00,,,0.00,WUHU21623XXSP,2013-04-28 15:47:00,
2013-04-28 11:52:00,57.4,54.2,29.10,South,180,1.8,2.5,89,0.00,,,0.00,WUHU21623XXSP,2013-04-28 15:52:00,
2013-04-28 11:57:00,57.4,54.2,29.10,SE,135,0.0,2.5,89,0.00,,,0.00,WUHU21623XXSP,2013-04-28 15:57:00,
2013-04-28 12:02:00,57.6,54.4,29.10,SSW,202,3.6,3.6,89,0.00,,,0.00,WUHU21623XXSP,2013-04-28 16:02:00,
2013-04-28 12:07:00,57.6,54.4,29.10,South,180,0.0,3.6,89,0.00,,,0.00,WUHU21623XXSP,2013-04-28 16:07:00,
2013-04-28 12:12:00,57.7,54.5,29.10,SSW,202,0.0,3.1,89,0.00,,,0.00,WUHU21623XXSP,2013-04-28 16:12:00,
2013-04-28 12:17:00,57.7,54.5,29.10,SSW,202,0.0,3.8,89,0.00,,,0.00,WUHU21623XXSP,2013-04-28 16:17:00,
2013-04-28 12:22:00,57.7,54.5,29.10,SSW,202,0.0,3.8,89,0.00,,,0.00,WUHU21623XXSP,2013-04-28 16:22:00,
2013-04-28 12:27:00,57.7,54.5,29.10,SW,225,5.4,5.4,89,0.00,,,0.00,WUHU21623XXSP,2013-04-28 16:27:00,
2013-04-28 12:32:00,57.9,54.7,29.09,SW,225,0.0,5.4,89,0.00,,,0.00,WUHU21623XXSP,2013-04-28 16:32:00,
2013-04-28 12:37:00,57.9,54.4,29.09,SW,225,0.0,5.4,88,0.00,,,0.00,WUHU21623XXSP,2013-04-28 16:37:00,
2013-04-28 12:42:00,58.1,54.6,29.09,SSE,157,0.0,0.0,88,0.00,,,0.00,WUHU21623XXSP,2013-04-28 16:42:00,
2013-04-28 12:47:00,58.3,54.8,29.09,SSE,157,0.0,0.0,88,0.00,,,0.00,WUHU21623XXSP,2013-04-28 16:47:00,
2013-04-28 12:52:00,58.5,54.9,29.09,ESE,112,0.0,0.0,88,0.00,,,0.00,WUHU21623XXSP,2013-04-28 16:52:00,
2013-04-28 12:57:00,58.5,54.9,29.09,ESE,112,0.0,0.0,88,0.00,,,0.00,WUHU21623XXSP,2013-04-28 16:57:00,
2013-04-28 13:02:00,58.6,55.1,29.09,South,180,0.0,0.0,88,0.00,,,0.00,WUHU21623XXSP,2013-04-28 17:02:00,
2013-04-28 13:07:00,58.8,55.3,29.09,SE,135,0.0,0.0,88,0.00,,,0.00,WUHU21623XXSP,2013-04-28 17:07:00,
2013-04-28 13:12:00,59.0,55.5,29.08,SE,135,0.0,0.0,88,0.00,,,0.00,WUHU21623XXSP,2013-04-28 17:12:00,
2013-04-28 13:17:00,59.0,55.1,29.09,SSW,202,0.0,0.0,87,0.00,,,0.00,WUHU21623XXSP,2013-04-28 17:17:00,
2013-04-28 13:22:00,59.2,55.3,29.09,SSW,202,0.0,0.0,87,0.00,,,0.00,WUHU21623XXSP,2013-04-28 17:22:00,
2013-04-28 13:27:00,59.2,55.3,29.08,South,180,2.7,2.7,87,0.00,,,0.00,WUHU21623XXSP,2013-04-28 17:27:00,
2013-04-28 13:32:00,59.2,55.3,29.08,South,180,2.0,2.7,87,0.00,,,0.00,WUHU21623XXSP,2013-04-28 17:32:00,
2013-04-28 13:37:00,59.2,55.3,29.08,WSW,247,0.0,5.8,87,0.00,,,0.00,WUHU21623XXSP,2013-04-28 17:37:00,
2013-04-28 13:42:00,59.4,55.2,29.08,SSW,202,2.0,5.8,86,0.00,,,0.00,WUHU21623XXSP,2013-04-28 17:42:00,
2013-04-28 13:47:00,59.5,55.4,29.08,SSW,202,0.0,4.3,86,0.00,,,0.00,WUHU21623XXSP,2013-04-28 17:47:00,
2013-04-28 13:52:00,59.5,55.4,29.08,WSW,247,0.0,0.0,86,0.00,,,0.00,WUHU21623XXSP,2013-04-28 17:52:00,
2013-04-28 13:58:00,59.7,55.5,29.08,South,180,0.0,0.0,86,0.00,,,0.00,WUHU21623XXSP,2013-04-28 17:58:00,
2013-04-28 14:03:00,59.7,55.2,29.08,SSW,202,3.8,3.8,85,0.00,,,0.00,WUHU21623XXSP,2013-04-28 18:03:00,
2013-04-28 14:08:00,59.7,55.2,29.08,SW,225,0.0,3.8,85,0.00,,,0.00,WUHU21623XXSP,2013-04-28 18:08:00,
2013-04-28 14:13:00,59.5,55.0,29.08,SW,225,0.0,0.0,85,0.00,,,0.00,WUHU21623XXSP,2013-04-28 18:13:00,
2013-04-28 14:18:00,59.7,55.2,29.08,SSE,157,0.0,0.0,85,0.00,,,0.00,WUHU21623XXSP,2013-04-28 18:18:00,
2013-04-28 14:23:00,59.5,55.0,29.08,West,270,0.0,0.0,85,0.00,,,0.00,WUHU21623XXSP,2013-04-28 18:23:00,
2013-04-28 14:28:00,59.5,54.7,29.08,West,270,0.0,0.0,84,0.00,,,0.00,WUHU21623XXSP,2013-04-28 18:28:00,
2013-04-28 14:33:00,59.4,54.9,29.08,WNW,292,0.0,0.0,85,0.00,,,0.00,WUHU21623XXSP,2013-04-28 18:33:00,
2013-04-28 14:38:00,59.2,54.7,29.08,West,270,2.0,2.0,85,0.00,,,0.00,WUHU21623XXSP,2013-04-28 18:38:00,
2013-04-28 14:43:00,58.6,54.5,29.08,NW,315,0.0,2.0,86,0.00,,,0.00,WUHU21623XXSP,2013-04-28 18:43:00,
2013-04-28 14:48:00,58.5,54.3,29.08,West,270,0.0,2.0,86,0.00,,,0.00,WUHU21623XXSP,2013-04-28 18:48:00,
2013-04-28 14:53:00,58.1,54.2,29.08,WSW,247,0.0,0.0,87,0.00,,,0.00,WUHU21623XXSP,2013-04-28 18:53:00,
2013-04-28 14:58:00,57.9,54.1,29.08,West,270,0.0,0.0,87,0.00,,,0.00,WUHU21623XXSP,2013-04-28 18:58:00,
2013-04-28 15:03:00,57.7,54.2,29.08,West,270,0.0,1.3,88,0.00,,,0.00,WUHU21623XXSP,2013-04-28 19:03:00,
2013-04-28 15:08:00,57.7,54.2,29.08,West,270,2.5,2.5,88,0.00,,,0.00,WUHU21623XXSP,2013-04-28 19:08:00,
2013-04-28 15:13:00,57.7,54.5,29.08,WNW,292,0.0,2.5,89,0.00,,,0.00,WUHU21623XXSP,2013-04-28 19:13:00,
2013-04-28 15:18:00,57.7,54.5,29.08,West,270,0.0,0.0,89,0.00,,,0.00,WUHU21623XXSP,2013-04-28 19:18:00,
2013-04-28 15:23:00,57.9,54.7,29.08,WNW,292,0.0,2.9,89,0.00,,,0.00,WUHU21623XXSP,2013-04-28 19:23:00,
2013-04-28 15:28:00,58.1,54.9,29.08,West,270,0.0,2.9,89,0.00,,,0.00,WUHU21623XXSP,2013-04-28 19:28:00,
2013-04-28 15:33:00,58.3,55.1,29.07,NW,315,0.0,0.0,89,0.00,,,0.00,WUHU21623XXSP,2013-04-28 19:33:00,
2013-04-28 15:38:00,58.5,55.6,29.08,West,270,0.9,0.9,90,0.00,,,0.00,WUHU21623XXSP,2013-04-28 19:38:00,
2013-04-28 15:43:00,58.6,55.4,29.07,West,270,0.0,1.8,89,0.00,,,0.00,WUHU21623XXSP,2013-04-28 19:43:00,
2013-04-28 15:48:00,58.6,55.4,29.07,WSW,247,0.0,1.8,89,0.00,,,0.00,WUHU21623XXSP,2013-04-28 19:48:00,
2013-04-28 15:53:00,58.6,55.4,29.07,West,270,1.1,1.8,89,0.00,,,0.00,WUHU21623XXSP,2013-04-28 19:53:00,
2013-04-28 15:58:00,58.5,55.3,29.07,West,270,0.0,3.6,89,0.00,,,0.00,WUHU21623XXSP,2013-04-28 19:58:00,
2013-04-28 16:03:00,58.3,55.1,29.07,West,270,0.0,3.6,89,0.00,,,0.00,WUHU21623XXSP,2013-04-28 20:03:00,
2013-04-28 16:08:00,58.1,54.9,29.07,North,0,0.0,3.4,89,0.00,,,0.00,WUHU21623XXSP,2013-04-28 20:08:00,
2013-04-28 16:14:00,57.9,54.7,29.07,WNW,292,0.0,3.4,89,0.00,,,0.00,WUHU21623XXSP,2013-04-28 20:14:00,
2013-04-28 16:19:00,57.9,54.7,29.07,NNW,337,0.0,0.0,89,0.00,,,0.00,WUHU21623XXSP,2013-04-28 20:19:00,
2013-04-28 16:24:00,57.9,54.7,29.07,NNW,337,0.0,0.0,89,0.00,,,0.00,WUHU21623XXSP,2013-04-28 20:24:00,
2013-04-28 16:29:00,57.9,54.7,29.07,NW,315,0.0,0.0,89,0.00,,,0.00,WUHU21623XXSP,2013-04-28 20:29:00,
2013-04-28 16:34:00,57.9,54.7,29.07,WNW,292,0.0,0.0,89,0.00,,,0.00,WUHU21623XXSP,2013-04-28 20:34:00,
2013-04-28 16:39:00,57.9,54.7,29.07,WNW,292,0.0,0.0,89,0.00,,,0.00,WUHU21623XXSP,2013-04-28 20:39:00,
2013-04-28 16:44:00,57.9,54.7,29.07,WNW,292,0.0,0.0,89,0.00,,,0.00,WUHU21623XXSP,2013-04-28 20:44:00,
2013-04-28 16:49:00,57.9,54.7,29.07,West,270,0.0,0.0,89,0.00,,,0.00,WUHU21623XXSP,2013-04-28 20:49:00,
2013-04-28 16:54:00,57.9,54.7,29.07,NW,315,0.0,0.0,89,0.00,,,0.00,WUHU21623XXSP,2013-04-28 20:54:00,
2013-04-28 16:59:00,57.9,54.7,29.07,West,270,0.0,0.0,89,0.00,,,0.00,WUHU21623XXSP,2013-04-28 20:59:00,
2013-04-28 17:04:00,58.1,54.7,29.07,West,270,0.0,0.0,89,0.00,,,0.00,WUHU21623XXSP,2013-04-28 21:04:00,
2013-04-28 17:09:00,58.1,54.9,29.07,West,270,0.0,0.0,89,0.00,,,0.00,WUHU21623XXSP,2013-04-28 21:09:00,
2013-04-28 17:14:00,58.3,55.1,29.07,WNW,292,0.0,0.0,89,0.00,,,0.00,WUHU21623XXSP,2013-04-28 21:14:00,
2013-04-28 17:19:00,58.3,55.1,29.07,NW,315,0.0,0.0,89,0.00,,,0.00,WUHU21623XXSP,2013-04-28 21:19:00,
2013-04-28 17:24:00,58.1,54.9,29.07,NW,315,0.0,0.0,89,0.00,,,0.00,WUHU21623XXSP,2013-04-28 21:24:00,
2013-04-28 17:29:00,58.1,54.9,29.07,NW,315,0.0,0.0,89,0.00,,,0.00,WUHU21623XXSP,2013-04-28 21:29:00,
2013-04-28 17:34:00,58.3,55.1,29.07,West,270,4.7,4.7,89,0.00,,,0.00,WUHU21623XXSP,2013-04-28 21:34:00,
2013-04-28 17:39:00,58.1,54.6,29.07,WNW,292,0.0,4.7,88,0.00,,,0.00,WUHU21623XXSP,2013-04-28 21:39:00,
2013-04-28 17:44:00,57.9,54.4,29.07,NNW,337,0.0,0.0,88,0.00,,,0.00,WUHU21623XXSP,2013-04-28 21:44:00,
2013-04-28 17:49:00,57.9,54.4,29.07,NNW,337,0.0,0.0,88,0.00,,,0.00,WUHU21623XXSP,2013-04-28 21:49:00,
2013-04-28 17:54:00,57.9,54.4,29.07,NNW,337,0.0,0.0,88,0.00,,,0.00,WUHU21623XXSP,2013-04-28 21:54:00,
2013-04-28 17:59:00,58.1,54.9,29.08,NNW,337,0.0,0.0,89,0.00,,,0.00,WUHU21623XXSP,2013-04-28 21:59:00,
2013-04-28 18:04:00,58.5,54.9,29.08,NW,315,0.0,0.0,88,0.00,,,0.00,WUHU21623XXSP,2013-04-28 22:04:00,
2013-04-28 18:09:00,58.5,54.9,29.07,WNW,292,0.0,0.0,88,0.00,,,0.00,WUHU21623XXSP,2013-04-28 22:09:00,
2013-04-28 18:14:00,58.8,55.3,29.07,NW,315,0.0,0.0,88,0.00,,,0.00,WUHU21623XXSP,2013-04-28 22:14:00,
2013-04-28 18:19:00,59.0,55.5,29.07,NW,315,0.0,0.0,88,0.00,,,0.00,WUHU21623XXSP,2013-04-28 22:19:00,
2013-04-28 18:24:00,59.0,55.5,29.07,NW,315,0.0,0.0,88,0.00,,,0.00,WUHU21623XXSP,2013-04-28 22:24:00,
2013-04-28 18:29:00,59.0,55.5,29.07,NW,315,0.0,0.0,88,0.00,,,0.00,WUHU21623XXSP,2013-04-28 22:29:00,
2013-04-28 18:34:00,59.0,55.5,29.06,NW,315,0.0,0.0,88,0.00,,,0.00,WUHU21623XXSP,2013-04-28 22:34:00,
2013-04-28 18:39:00,59.0,55.5,29.07,NW,315,0.0,0.0,88,0.00,,,0.00,WUHU21623XXSP,2013-04-28 22:39:00,
2013-04-28 18:45:00,59.0,55.5,29.07,NW,315,0.0,0.0,88,0.00,,,0.00,WUHU21623XXSP,2013-04-28 22:45:00,